Location: Bats
(43.6587°N, 0.4584°W)
Time: 09:14:50
(UTC+00:00)

NOSS 3-2 (C) - Pass Details

Date: 12 January 2026
Orbit: 672 x 1536 km, 63.4° (Epoch: 2 January)

Event Time Altitude Azimuth Distance (km) Brightness Sun altitude
Rises 17:27:30 0° 323° (NW) 3,883 6.8 -7.4°
Reaches altitude 10° 17:29:58 10° 324° (NW) 3,038 6.3 -7.8°
Maximum altitude 17:37:28 84° 53° (NE) 1,329 4.2 -9.1°
Drops below altitude 10° 17:46:26 10° 143° (SE) 3,598 6.3 -10.6°
Sets 17:49:34 0° 144° (SE) 4,632 6.8 -11.1°
